Regional Weather Roundup
Issued by NWS Upton, NY

Current Version | Previous Version | Text Only | Print | Product List | Glossary On
Versions: 1 2 3 4 5 6 7 8 9 10 11 12 13 14 15 16 17 18 19 20 21 22 23 24 25 26 27 28
000
ASUS41 KOKX 240005
RWROKX
REGIONAL WEATHER ROUNDUP
NATIONAL WEATHER SERVICE NEW YORK NY
800 PM EDT WED APR 23 2014

NOTE: "FAIR" INDICATES FEW OR NO CLOUDS BELOW 12,000 FEET WITH NO
SIGNIFICANT WEATHER AND/OR OBSTRUCTIONS TO VISIBILITY.

NYZ071-072-176-178-NJZ106-104-240100-
NEW YORK CITY METRO AREA


CITY           SKY/WX    TMP DP  RH WIND       PRES   REMARKS
CENTRAL PARK   MOCLDY    48  30  49 N9G30     29.78R
LAGUARDIA APRT MOCLDY    48  30  49 NW26G41   29.74R
KENNEDY INTL   MOCLDY    50  31  48 NW26G39   29.74R
NEWARK/LIBERTY MOCLDY    50  31  48 NW21G29   29.76R
TETERBORO      CLOUDY    49  30  48 NW13G29   29.75R
$$

NYZ177-179-078>081-240100-
LONG ISLAND NEW YORK

CITY           SKY/WX    TMP DP  RH WIND       PRES   REMARKS
FARMINGDALE    CLEAR     48  33  56 NW23G33   29.69R
ISLIP          MOCLDY    51  34  52 NW21G33   29.66R
SHIRLEY        MOCLDY    50  32  50 N20G30    29.67R
WESTHAMPTON    MOCLDY    50  32  50 NW20G31   29.65R
MONTAUK POINT    N/A     50  37  61 NW15G23   29.60R
$$

NYZ052-065-067-240100-
HUDSON VALLEY

CITY           SKY/WX    TMP DP  RH WIND       PRES   REMARKS
WHITE PLAINS   MOCLDY    46  31  55 NW21G33   29.71R
NEWBURGH       MOCLDY    45  32  61 NW21G32   29.77R
MONTGOMERY     CLOUDY    45  31  58 NW15G22   29.78R
POUGHKEEPSIE   MOCLDY    47  29  49 NW24G30   29.74R
ALBANY         MOCLDY    44  32  62 W16G30    29.75R
$$

NJZ001-105-106-008-010-013-015-019>022-104-240100-
NEW JERSEY

CITY           SKY/WX    TMP DP  RH WIND       PRES   REMARKS
NEWARK/LIBERTY MOCLDY    50  31  48 NW21G29   29.76R
TETERBORO      CLOUDY    49  30  48 NW13G29   29.75R
CALDWELL       MOCLDY    47  31  53 NW14G28   29.77R
MORRISTOWN     MOCLDY    48  30  49 N12G33    29.78R
SOMERVILLE     CLOUDY    50  31  48 NW20G31   29.77R
LINDEN         FAIR      51  32  48 NW16G24   29.77R
SUSSEX         CLOUDY    45  31  58 NW12G18   29.81R
ANDOVER          N/A     44  30  57 N10G24    29.81R
TRENTON        CLOUDY    52  31  44 NW21G37   29.78R
MILLVILLE      PTCLDY    53  36  52 W17G28    29.79R
ATLANTIC CITY  CLOUDY    56  34  43 NW23G35   29.74R
WRIGHTSTOWN    CLOUDY    53  34  48 NW21      29.75R
TOMS RIVER     PTCLDY    52  34  50 N12G22    29.75R
BELMAR         MOCLDY    52  30  43 NW24G32   29.75R
$$

PAZ047>061-062-071-240100-
EASTERN PENNSYLVANIA

CITY           SKY/WX    TMP DP  RH WIND       PRES   REMARKS
PHILADELPHIA   MOCLDY    56  31  38 W18G25    29.81R
ALLENTOWN      CLOUDY    48  30  49 NW13G24   29.83R
SCRANTON       CLOUDY    41  27  57 NW14G24   29.87R
$$

CTZ002-004>006-009-010-012-RIZ004-006-007-MAZ004-011-015-240100-
SOUTHERN NEW ENGLAND
 IN CT

CITY           SKY/WX    TMP DP  RH WIND       PRES   REMARKS
BRADLEY INTL   CLOUDY    48  33  56 NW18G30   29.64R
HARTFORD       CLOUDY    49  33  54 NW17G29   29.65R
DANBURY        CLOUDY    46  31  55 NW13G31   29.71R
WTRBRY/OXFORD  MOCLDY    45  28  53 NW20G29   29.69R
BRIDGEPORT     MOCLDY    51  32  48 NW18G32   29.67R
MERIDEN        MOCLDY    48  31  51 NW15G37   29.67R
NEW HAVEN      MOCLDY    50  31  48 NW20G31   29.67R
CHESTER        CLOUDY    46  32  57 NW16G28   29.63R
GROTON         CLOUDY    51  34  52 NW18G32   29.59R
WILLIMANTIC    CLOUDY    51  30  44 NW16G33   29.61R

 IN RI

CITY           SKY/WX    TMP DP  RH WIND       PRES   REMARKS
PROVIDENCE     CLOUDY    52  32  46 N13G29    29.56R
BLOCK ISLAND   CLOUDY    52  34  50 NW15G26   29.57R
WESTERLY       CLOUDY    53  32  44 N20G26    29.58R

 IN MA

CITY           SKY/WX    TMP DP  RH WIND       PRES   REMARKS
BOSTON         CLOUDY    51  34  52 NW20G30   29.54R
WORCESTER      CLOUDY    46  30  53 NW17G30   29.58R
WESTFIELD      CLOUDY    48  33  56 NW24G32   29.64R
PROVINCETOWN   CLOUDY    45  37  76 MISG      29.50R
NANTUCKET      CLOUDY    48  40  73 NW17G35   29.49R
$$

ANZ330-335-338-340-345-350-353-355-240100-
COASTAL MARINE OBSERVATIONS


STATION/POSITION TIME  SKY/WX   TEMP    WIND        PRES    VSBY  WAVE
                                AIR SEA DIR/SP/G                  HT/PER
                 (UTC)          (F)     (DEG/KT/KT) (MB)    (MI)  (FT/S)
NY HARB ENTRANCE 0000            49 46  VRB 27/ 33  1005.6
4S FIRE IS       2300               45                N/A           4/ 4
23SW MTP         0000            49 43  310/ 25/ 31 1001.4          4/ 4
HUDSON CANYON    2300            49 45  310/ 12/ 16 1002.7          5/ 6
EXECUTION ROCKS  0000            48 45  300/ 23/ 35   N/A
WESTERN LI SOUND 0000            48     310/ 25/ 31   N/A           3/ 4
CENTRAL LI SOUND 2300            49 44  310/ 21/ 25   N/A           4/ 5
EASTERN LI SOUND NOT AVBL
ROBBINS REEF     0000            49     330/ 25/ 36   N/A
$$


>>>>>>>>>>>>>>>>>>>>>>>>>>>> KEY <<<<<<<<<<<<<<<<<<<<<<<<<<<
>                                                          <
>     SKY/WX - SKY CONDITION/PRESENT WEATHER               <
>     TMP    - TEMPERATURE IN FAHRENHEIT                   <
>     DP     - DEWPOINT IN FAHRENHEIT                      <
>     RH     - RELATIVE HUMIDITY IN PERCENT                <
>     WIND   - DIRECTION AND SPEED IN MPH                  <
>     PRES   - MEAN SEA LEVEL PRESSURE IN INCHES OF HG     <
>     WCI    - WIND CHILL INDEX                            <
>     VSB    - VISIBILITY IN MILES                         <
>     HX     - HEAT INDEX                                  <
>     TC     - TEMPERATURE IN CELSIUS                      <
>     VRB    - VARIABLE WIND DIRECTION                     <
>                                                          <
>>>>>>>>>>>>>>>>>>>>>>>>>>>> KEY <<<<<<<<<<<<<<<<<<<<<<<<<<<





USA.gov is the U.S. government's official web portal to all federal, state and local government web resources and services.